Location: Caltech
(34.1382°N, 118.1253°W)
Time: 05:10:13
(UTC-07:00)

Cosmos 1939 Rocket - Visible Passes

Search period start: 26 July 2016 00:00
Search period end: 05 August 2016 00:00
Orbit: 533 x 588 km, 97.6° (Epoch: 25 July)

Date Brightness Start Highest point End Pass type
(mag) Time Alt. Az. Time Alt. Az. Time Alt. Az.
26 Jul 2.9 21:30:37 24° S 21:32:50 70° W 21:36:44 10° NNW visible
27 Jul 2.9 21:29:40 25° S 21:31:52 73° W 21:35:46 10° NNW visible
28 Jul 2.9 21:28:44 25° S 21:30:52 75° WSW 21:34:48 10° NNW visible
29 Jul 2.8 21:27:48 26° S 21:29:54 77° WSW 21:33:50 10° NNW visible
30 Jul 2.8 21:26:52 27° S 21:28:55 80° WSW 21:32:52 10° NNW visible
31 Jul 2.8 21:25:56 27° S 21:27:57 82° WSW 21:31:54 10° NNW visible
01 Aug 2.7 21:25:01 28° S 21:26:58 84° W 21:30:56 10° NNW visible
02 Aug 2.7 21:24:05 29° S 21:26:00 87° WSW 21:29:59 10° NNW visible
03 Aug 2.7 21:23:09 30° SSE 21:25:01 89° WSW 21:29:01 10° NNW visible
04 Aug 2.7 21:22:14 31° SSE 21:24:03 88° ENE 21:28:02 10° N visible
